| time (UTC) | temp F | wind direction | speed MPH | gust MPH | rain 1hr in | rain 24hr in | rain mn in | humidity % | barometer mb |
| 20260906030749 | 87 | 277 | 1.0 | 2.0 | 0.00 | 0.00 | 0.00 | 62 | 1009.8 |
| 20260906025753 | 87 | 299 | 3.0 | 4.0 | 0.00 | 0.00 | 0.00 | 62 | 1009.6 |
| 20260906024757 | 87 | 0.0 | 0.0 | 0.00 | 0.00 | 0.00 | 62 | 1009.5 | |
| 20260906023803 | 86 | 0.0 | 0.0 | 0.00 | 0.00 | 0.00 | 62 | 1009.4 | |
| 20260906022747 | 86 | 0.0 | 0.0 | 0.00 | 0.00 | 0.00 | 61 | 1009.4 | |
| 20260906021751 | 86 | 0.0 | 0.0 | 0.00 | 0.00 | 0.00 | 61 | 1009.3 | |
| 20260906020755 | 86 | 0.0 | 0.0 | 0.00 | 0.00 | 0.00 | 61 | 1009.1 | |
| 20260906015755 | 87 | 0.0 | 0.0 | 0.00 | 0.00 | 0.00 | 60 | 1008.9 | |
| 20260906014745 | 87 | 0.0 | 0.0 | 0.00 | 0.00 | 0.00 | 59 | 1008.9 | |
| 20260906013749 | 88 | 0.0 | 0.0 | 0.00 | 0.00 | 0.00 | 59 | 1008.8 | |
| 20260906012809 | 88 | 0.0 | 0.0 | 0.00 | 0.00 | 0.00 | 58 | 1008.6 | |
| 20260906011746 | 89 | 0.0 | 0.0 | 0.00 | 0.00 | 0.00 | 57 | 1008.6 | |
| 20260906010802 | 89 | 0.0 | 0.0 | 0.00 | 0.00 | 0.00 | 56 | 1008.4 | |
| 20260906005749 | 90 | 0.0 | 0.0 | 0.00 | 0.00 | 0.00 | 56 | 1008.4 | |
| 20260906004752 | 91 | 0.0 | 0.0 | 0.00 | 0.00 | 0.00 | 55 | 1008.4 | |
| 20260906003756 | 91 | 0.0 | 0.0 | 0.00 | 0.00 | 0.00 | 54 | 1008.4 | |
| 20260906002800 | 92 | 0.0 | 0.0 | 0.00 | 0.00 | 0.00 | 52 | 1008.4 | |
| 20260906001746 | 93 | 0.0 | 0.0 | 0.00 | 0.00 | 0.00 | 51 | 1008.2 | |
| 20260906000750 | 93 | 0.0 | 0.0 | 0.00 | 0.00 | 0.00 | 50 | 1008.2 | |
| 20260905235755 | 94 | 0.0 | 0.0 | 0.00 | 0.00 | 0.00 | 49 | 1008.4 | |
| 20260905234759 | 95 | 75 | 1.0 | 2.0 | 0.00 | 0.00 | 0.00 | 49 | 1008.4 |
| 20260905233801 | 95 | 0.0 | 0.0 | 0.00 | 0.00 | 0.00 | 48 | 1008.4 | |
| 20260905232749 | 95 | 328 | 2.0 | 3.0 | 0.00 | 0.00 | 0.00 | 46 | 1008.4 |
| 20260905231812 | 96 | 0.0 | 0.0 | 0.00 | 0.00 | 0.00 | 47 | 1008.4 | |
| 20260905230837 | 97 | 314 | 2.0 | 3.0 | 0.00 | 0.00 | 0.00 | 45 | 1008.4 |
| 20260905225800 | 97 | 18 | 2.0 | 3.0 | 0.00 | 0.00 | 0.00 | 43 | 1008.4 |
| 20260905224746 | 98 | 323 | 3.0 | 3.0 | 0.00 | 0.00 | 0.00 | 41 | 1008.1 |
| 20260905223750 | 99 | 292 | 2.0 | 4.0 | 0.00 | 0.00 | 0.00 | 41 | 1008.1 |
| 20260905222754 | 99 | 282 | 4.0 | 5.0 | 0.00 | 0.00 | 0.00 | 41 | 1008.1 |
| 20260905221758 | 99 | 320 | 2.0 | 3.0 | 0.00 | 0.00 | 0.00 | 41 | 1008.2 |
| 20260905220802 | 99 | 316 | 3.0 | 4.0 | 0.00 | 0.00 | 0.00 | 40 | 1008.1 |
| 20260905215749 | 99 | 293 | 4.0 | 6.0 | 0.00 | 0.00 | 0.00 | 41 | 1008.2 |
| 20260905214752 | 99 | 344 | 4.0 | 6.0 | 0.00 | 0.00 | 0.00 | 41 | 1008.1 |
| 20260905213756 | 99 | 301 | 3.0 | 4.0 | 0.00 | 0.00 | 0.00 | 42 | 1008.1 |
| 20260905212820 | 99 | 307 | 5.0 | 8.0 | 0.00 | 0.00 | 0.00 | 41 | 1008.1 |
| 20260905211746 | 100 | 327 | 5.0 | 7.0 | 0.00 | 0.00 | 0.00 | 41 | 1008.2 |
| 20260905210750 | 100 | 308 | 4.0 | 6.0 | 0.00 | 0.00 | 0.00 | 41 | 1008.4 |
| 20260905205754 | 100 | 293 | 4.0 | 7.0 | 0.00 | 0.00 | 0.00 | 42 | 1008.6 |
| 20260905204812 | 99 | 331 | 7.0 | 11.0 | 0.00 | 0.00 | 0.00 | 42 | 1008.6 |
| 20260905203750 | 100 | 337 | 4.0 | 6.0 | 0.00 | 0.00 | 0.00 | 39 | 1008.6 |
| 20260905202748 | 100 | 314 | 2.0 | 4.0 | 0.00 | 0.00 | 0.00 | 40 | 1008.6 |
| 20260905201746 | 101 | 311 | 5.0 | 7.0 | 0.00 | 0.00 | 0.00 | 39 | 1008.8 |
| 20260905200838 | 101 | 320 | 4.0 | 5.0 | 0.00 | 0.00 | 0.00 | 38 | 1008.8 |
| 20260905195803 | 102 | 290 | 3.0 | 5.0 | 0.00 | 0.00 | 0.00 | 38 | 1008.9 |
| 20260905194807 | 101 | 287 | 5.0 | 9.0 | 0.00 | 0.00 | 0.00 | 38 | 1009.1 |
| 20260905193750 | 102 | 291 | 3.0 | 5.0 | 0.00 | 0.00 | 0.00 | 38 | 1009.2 |
| 20260905192755 | 101 | 285 | 4.0 | 6.0 | 0.00 | 0.00 | 0.00 | 38 | 1009.4 |
| 20260905191759 | 102 | 325 | 3.0 | 4.0 | 0.00 | 0.00 | 0.00 | 38 | 1009.6 |
| 20260905190745 | 103 | 308 | 4.0 | 6.0 | 0.00 | 0.00 | 0.00 | 38 | 1009.6 |
| 20260905185749 | 102 | 323 | 5.0 | 9.0 | 0.00 | 0.00 | 0.00 | 38 | 1009.6 |
| 20260905184754 | 103 | 341 | 3.0 | 4.0 | 0.00 | 0.00 | 0.00 | 38 | 1009.9 |
| 20260905183758 | 103 | 295 | 3.0 | 5.0 | 0.00 | 0.00 | 0.00 | 40 | 1009.9 |
| 20260905182802 | 102 | 310 | 3.0 | 4.0 | 0.00 | 0.00 | 0.00 | 41 | 1010.0 |
| 20260905181749 | 101 | 308 | 3.0 | 5.0 | 0.00 | 0.00 | 0.00 | 40 | 1010.1 |
| 20260905180811 | 101 | 342 | 4.0 | 7.0 | 0.00 | 0.00 | 0.00 | 40 | 1010.1 |
| 20260905175817 | 101 | 327 | 3.0 | 6.0 | 0.00 | 0.00 | 0.00 | 42 | 1010.1 |
| 20260905174759 | 101 | 345 | 4.0 | 7.0 | 0.00 | 0.00 | 0.00 | 43 | 1010.3 |
| 20260905173746 | 100 | 298 | 3.0 | 4.0 | 0.00 | 0.00 | 0.00 | 42 | 1010.3 |
| 20260905172749 | 100 | 288 | 2.0 | 3.0 | 0.00 | 0.00 | 0.00 | 44 | 1010.4 |
| 20260905171815 | 99 | 5 | 3.0 | 5.0 | 0.00 | 0.00 | 0.00 | 44 | 1010.6 |
| 20260905170758 | 99 | 334 | 4.0 | 6.0 | 0.00 | 0.00 | 0.00 | 45 | 1010.8 |
| 20260905165802 | 98 | 307 | 3.0 | 5.0 | 0.00 | 0.00 | 0.00 | 45 | 1010.8 |
| 20260905164748 | 98 | 304 | 4.0 | 6.0 | 0.00 | 0.00 | 0.00 | 46 | 1010.9 |
| 20260905163753 | 97 | 74 | 2.0 | 3.0 | 0.00 | 0.00 | 0.00 | 48 | 1010.9 |
| 20260905162756 | 98 | 307 | 3.0 | 4.0 | 0.00 | 0.00 | 0.00 | 49 | 1011.0 |
| 20260905161820 | 96 | 303 | 2.0 | 3.0 | 0.00 | 0.00 | 0.00 | 50 | 1011.1 |
| 20260905160746 | 96 | 352 | 3.0 | 5.0 | 0.00 | 0.00 | 0.00 | 49 | 1011.1 |
| 20260905155750 | 96 | 3 | 2.0 | 3.0 | 0.00 | 0.00 | 0.00 | 50 | 1011.2 |
| 20260905154754 | 96 | 322 | 5.0 | 6.0 | 0.00 | 0.00 | 0.00 | 49 | 1011.2 |
| 20260905153754 | 95 | 291 | 3.0 | 4.0 | 0.00 | 0.00 | 0.00 | 52 | 1011.2 |
| 20260905152812 | 94 | 270 | 2.0 | 3.0 | 0.00 | 0.00 | 0.00 | 54 | 1011.2 |
| 20260905151749 | 93 | 292 | 3.0 | 6.0 | 0.00 | 0.00 | 0.00 | 55 | 1011.3 |
| 20260905150747 | 92 | 332 | 4.0 | 5.0 | 0.00 | 0.00 | 0.00 | 56 | 1011.3 |
| 20260905145757 | 92 | 318 | 4.0 | 6.0 | 0.00 | 0.00 | 0.00 | 56 | 1011.2 |
| 20260905144801 | 91 | 321 | 2.0 | 3.0 | 0.00 | 0.00 | 0.00 | 60 | 1011.1 |
| 20260905143746 | 89 | 322 | 1.0 | 3.0 | 0.00 | 0.00 | 0.00 | 60 | 1011.1 |
| 20260905142811 | 90 | 0.0 | 2.0 | 0.00 | 0.00 | 0.00 | 60 | 1011.1 | |
| 20260905141815 | 89 | 328 | 2.0 | 2.0 | 0.00 | 0.00 | 0.00 | 61 | 1011.2 |
| 20260905140759 | 89 | 307 | 1.0 | 3.0 | 0.00 | 0.00 | 0.00 | 60 | 1011.1 |
| 20260905135803 | 89 | 295 | 2.0 | 4.0 | 0.00 | 0.00 | 0.00 | 60 | 1011.0 |
| 20260905134749 | 88 | 212 | 2.0 | 4.0 | 0.00 | 0.00 | 0.00 | 62 | 1011.0 |
| 20260905133752 | 87 | 308 | 2.0 | 3.0 | 0.00 | 0.00 | 0.00 | 62 | 1011.0 |
| 20260905132820 | 86 | 298 | 2.0 | 2.0 | 0.00 | 0.00 | 0.00 | 63 | 1010.9 |
| 20260905131801 | 85 | 317 | 2.0 | 3.0 | 0.00 | 0.00 | 0.00 | 65 | 1010.9 |
| 20260905130747 | 82 | 330 | 2.0 | 3.0 | 0.00 | 0.00 | 0.00 | 69 | 1010.9 |
| 20260905125751 | 81 | 0.0 | 0.0 | 0.00 | 0.00 | 0.00 | 73 | 1010.7 | |
| 20260905124755 | 80 | 0.0 | 0.0 | 0.00 | 0.00 | 0.00 | 76 | 1010.7 | |
| 20260905123819 | 79 | 0.0 | 0.0 | 0.00 | 0.00 | 0.00 | 76 | 1010.6 | |
| 20260905122745 | 79 | 0.0 | 0.0 | 0.00 | 0.00 | 0.00 | 76 | 1010.5 | |
| 20260905121749 | 78 | 0.0 | 0.0 | 0.00 | 0.00 | 0.00 | 77 | 1010.5 | |
| 20260905120754 | 78 | 0.0 | 0.0 | 0.00 | 0.00 | 0.00 | 77 | 1010.4 | |
| 20260905115758 | 78 | 0.0 | 0.0 | 0.00 | 0.00 | 0.00 | 77 | 1010.1 | |
| 20260905114801 | 78 | 0.0 | 0.0 | 0.00 | 0.00 | 0.00 | 77 | 1010.1 | |
| 20260905113749 | 78 | 0.0 | 0.0 | 0.00 | 0.00 | 0.00 | 78 | 1010.1 | |
| 20260905112752 | 78 | 0.0 | 0.0 | 0.00 | 0.00 | 0.00 | 78 | 1010.1 | |
| 20260905111755 | 78 | 0.0 | 0.0 | 0.00 | 0.00 | 0.00 | 78 | 1010.0 | |
| 20260905110800 | 78 | 0.0 | 0.0 | 0.00 | 0.00 | 0.00 | 78 | 1009.9 | |
| 20260905105806 | 78 | 0.0 | 0.0 | 0.00 | 0.00 | 0.00 | 78 | 1010.0 | |
| 20260905104750 | 78 | 0.0 | 0.0 | 0.00 | 0.00 | 0.00 | 78 | 1010.0 | |
| 20260905103754 | 78 | 0.0 | 0.0 | 0.00 | 0.00 | 0.00 | 77 | 1010.0 | |
| 20260905102751 | 78 | 0.0 | 0.0 | 0.00 | 0.00 | 0.00 | 77 | 1010.0 | |
| 20260905101751 | 79 | 0.0 | 0.0 | 0.00 | 0.00 | 0.00 | 77 | 1010.1 | |
| 20260905100748 | 79 | 0.0 | 0.0 | 0.00 | 0.00 | 0.00 | 77 | 1010.1 | |
| 20260905095745 | 79 | 0.0 | 0.0 | 0.00 | 0.00 | 0.00 | 77 | 1010.0 | |
| 20260905094755 | 79 | 0.0 | 0.0 | 0.00 | 0.00 | 0.00 | 77 | 1010.0 | |
| 20260905093800 | 79 | 0.0 | 0.0 | 0.00 | 0.00 | 0.00 | 76 | 1010.0 | |
| 20260905092747 | 79 | 0.0 | 0.0 | 0.00 | 0.00 | 0.00 | 75 | 1010.1 | |
| 20260905091750 | 80 | 0.0 | 0.0 | 0.00 | 0.00 | 0.00 | 74 | 1010.1 | |
| 20260905090816 | 80 | 0.0 | 0.0 | 0.00 | 0.00 | 0.00 | 74 | 1010.0 | |
| 20260905085758 | 80 | 0.0 | 0.0 | 0.00 | 0.00 | 0.00 | 74 | 1010.1 | |
| 20260905084802 | 80 | 0.0 | 0.0 | 0.00 | 0.00 | 0.00 | 74 | 1010.1 | |
| 20260905083750 | 80 | 0.0 | 0.0 | 0.00 | 0.00 | 0.00 | 74 | 1010.1 | |
| 20260905082752 | 80 | 0.0 | 0.0 | 0.00 | 0.00 | 0.00 | 73 | 1010.1 | |
| 20260905081818 | 81 | 0.0 | 0.0 | 0.00 | 0.00 | 0.00 | 73 | 1010.1 | |
| 20260905080800 | 81 | 0.0 | 0.0 | 0.00 | 0.00 | 0.00 | 73 | 1010.3 | |
| 20260905075808 | 81 | 0.0 | 0.0 | 0.00 | 0.00 | 0.00 | 72 | 1010.3 | |
| 20260905074750 | 81 | 0.0 | 0.0 | 0.00 | 0.00 | 0.00 | 72 | 1010.4 | |
| 20260905073756 | 81 | 0.0 | 0.0 | 0.00 | 0.00 | 0.00 | 72 | 1010.4 | |
| 20260905072800 | 81 | 0.0 | 0.0 | 0.00 | 0.00 | 0.00 | 72 | 1010.5 | |
| 20260905071804 | 81 | 0.0 | 0.0 | 0.00 | 0.00 | 0.00 | 72 | 1010.4 | |
| 20260905070810 | 81 | 0.0 | 0.0 | 0.00 | 0.00 | 0.00 | 71 | 1010.4 | |
| 20260905065834 | 81 | 0.0 | 0.0 | 0.00 | 0.00 | 0.00 | 71 | 1010.5 | |
| 20260905064757 | 82 | 0.0 | 0.0 | 0.00 | 0.00 | 0.00 | 71 | 1010.5 | |
| 20260905063800 | 82 | 0.0 | 0.0 | 0.00 | 0.00 | 0.00 | 71 | 1010.5 | |
| 20260905062746 | 82 | 0.0 | 0.0 | 0.00 | 0.00 | 0.00 | 71 | 1010.5 | |
| 20260905061751 | 82 | 0.0 | 0.0 | 0.00 | 0.00 | 0.00 | 71 | 1010.6 | |
| 20260905060754 | 82 | 0.0 | 0.0 | 0.00 | 0.00 | 0.00 | 71 | 1010.7 | |
| 20260905055759 | 82 | 0.0 | 0.0 | 0.00 | 0.00 | 0.00 | 71 | 1010.7 | |
| 20260905054756 | 82 | 0.0 | 1.0 | 0.00 | 0.00 | 0.00 | 71 | 1010.6 | |
| 20260905053749 | 82 | 0.0 | 0.0 | 0.00 | 0.00 | 0.00 | 70 | 1010.6 | |
| 20260905052912 | 82 | 0.0 | 0.0 | 0.00 | 0.00 | 0.00 | 70 | 1010.7 | |
| 20260905051750 | 82 | 0.0 | 0.0 | 0.00 | 0.00 | 0.00 | 70 | 1010.6 | |
| 20260905050808 | 82 | 0.0 | 0.0 | 0.00 | 0.00 | 0.00 | 70 | 1010.5 | |
| 20260905045747 | 82 | 293 | 0.0 | 1.0 | 0.00 | 0.00 | 0.00 | 70 | 1010.5 |
| 20260905044750 | 82 | 0.0 | 0.0 | 0.00 | 0.00 | 0.00 | 70 | 1010.5 | |
| 20260905043755 | 82 | 0.0 | 0.0 | 0.00 | 0.00 | 0.00 | 69 | 1010.5 | |
| 20260905042820 | 83 | 0.0 | 0.0 | 0.00 | 0.00 | 0.00 | 69 | 1010.5 | |
| 20260905041802 | 83 | 0.0 | 0.0 | 0.00 | 0.00 | 0.00 | 68 | 1010.4 | |
| 20260905040748 | 83 | 0.0 | 0.0 | 0.00 | 0.00 | 0.00 | 68 | 1010.4 | |
| 20260905035812 | 83 | 0.0 | 0.0 | 0.00 | 0.00 | 0.00 | 68 | 1010.4 | |
| 20260905034758 | 83 | 0.0 | 0.0 | 0.00 | 0.00 | 0.00 | 67 | 1010.4 | |
| 20260905033801 | 84 | 0.0 | 0.0 | 0.00 | 0.00 | 0.00 | 67 | 1010.4 | |
| 20260905032747 | 84 | 0.0 | 0.0 | 0.00 | 0.00 | 0.00 | 67 | 1010.5 | |
| 20260905031751 | 84 | 0.0 | 0.0 | 0.00 | 0.00 | 0.00 | 67 | 1010.5 |